GW3716 Weather Reports


time (UTC)temp
C
wind
direction
speed
KPH
gust
KPH
rain 1hr
cm
rain 24hr
cm
rain mn
cm
humidity
%
barometer
mb
20260507060811 11 37 3.2 4.8 0.00 0.00 0.00 84 1015.5
20260507060308 11 39 4.8 4.8 0.00 0.00 0.00 84 1015.4
20260507055804 11 46 0.0 0.0 0.00 0.00 0.00 83 1015.5
20260507055259 11 46 0.0 0.0 0.00 0.00 0.00 82 1015.4
20260507054756 11 47 3.2 1.6 0.00 0.00 0.00 82 1015.1
20260507054253 11 40 3.2 4.8 0.00 0.00 0.00 81 1014.9
20260507053750 11 62 1.6 1.6 0.00 0.00 0.00 81 1014.8
20260507053247 11 45 4.8 6.4 0.00 0.00 0.00 80 1014.5
20260507052746 12 79 3.2 1.6 0.00 0.00 0.00 79 1015.0
20260507052242 12 54 3.2 4.8 0.00 0.00 0.00 79 1014.8
20260507051741 12 59 3.2 1.6 0.00 0.00 0.00 79 1014.9
20260507051237 12 82 4.8 4.8 0.00 0.00 0.00 78 1014.8
20260507050733 12 59 1.6 1.6 0.00 0.00 0.00 78 1014.6
20260507050231 12 75 4.8 9.7 0.00 0.00 0.00 78 1014.9
20260507045727 12 97 3.2 1.6 0.00 0.05 0.05 78 1014.8
20260507045224 12 85 0.0 0.0 0.00 0.05 0.05 77 1014.7
20260507044721 12 88 4.8 6.4 0.00 0.05 0.05 77 1014.7
20260507044217 12 79 3.2 4.8 0.00 0.05 0.05 76 1014.8
20260507043714 12 54 4.8 4.8 0.00 0.05 0.05 76 1014.5
20260507043211 12 53 3.2 4.8 0.00 0.05 0.05 75 1014.5
20260507042707 12 79 1.6 1.6 0.00 0.05 0.05 75 1014.8
20260507042202 12 72 4.8 9.7 0.00 0.05 0.05 75 1014.5
20260507041659 13 78 3.2 4.8 0.00 0.05 0.05 74 1014.4
20260507041156 13 46 4.8 6.4 0.00 0.05 0.05 74 1014.3
20260507040653 13 37 4.8 6.4 0.00 0.05 0.05 74 1014.5
20260507040149 13 67 4.8 6.4 0.00 0.05 0.05 74 1014.4
20260507035645 13 85 1.6 1.6 0.00 0.05 0.05 73 1014.2
20260507035141 13 65 6.4 9.7 0.00 0.05 0.05 73 1014.2
20260507034638 13 60 3.2 4.8 0.00 0.05 0.05 73 1014.2
20260507034136 13 103 4.8 11.3 0.00 0.05 0.05 73 1014.2
20260507033634 13 45 8.0 9.7 0.00 0.05 0.05 73 1014.0
20260507033131 13 40 6.4 9.7 0.00 0.05 0.05 72 1013.9
20260507032629 13 61 9.7 12.9 0.00 0.05 0.05 72 1013.8
20260507032124 13 56 6.4 6.4 0.00 0.05 0.05 72 1013.6
20260507031621 13 43 12.9 12.9 0.00 0.05 0.05 72 1013.6
20260507031113 13 50 9.7 12.9 0.00 0.05 0.05 72 1013.6
20260507030609 13 42 9.7 11.3 0.00 0.05 0.05 72 1013.6
20260507030107 13 43 4.8 6.4 0.00 0.05 0.05 72 1013.4
20260507025604 13 43 8.0 11.3 0.00 0.05 0.05 72 1013.4
20260507025101 13 32 9.7 9.7 0.00 0.05 0.05 71 1013.3
20260507024559 13 39 8.0 9.7 0.00 0.05 0.05 71 1013.1
20260507024056 14 45 6.4 9.7 0.00 0.05 0.05 71 1013.2
20260507023551 14 41 6.4 6.4 0.00 0.05 0.05 70 1013.2
20260507023049 14 50 8.0 9.7 0.00 0.05 0.05 69 1013.2
20260507022545 15 47 9.7 11.3 0.00 0.05 0.05 68 1013.1
20260507022040 15 45 6.4 9.7 0.00 0.05 0.05 68 1013.1
20260507021536 15 41 4.8 6.4 0.00 0.05 0.05 68 1013.1
20260507021033 15 49 6.4 6.4 0.00 0.05 0.05 67 1013.0
20260507020531 15 55 0.0 1.6 0.00 0.05 0.05 67 1013.1
20260507020027 15 54 4.8 4.8 0.00 0.05 0.05 66 1013.1
20260507015526 15 52 4.8 6.4 0.00 0.05 0.05 65 1013.0
20260507015023 16 49 4.8 9.7 0.00 0.05 0.05 64 1013.1
20260507014519 16 55 6.4 6.4 0.00 0.05 0.05 64 1012.9
20260507014015 16 58 4.8 6.4 0.00 0.05 0.05 64 1012.9
20260507013512 16 57 6.4 9.7 0.00 0.05 0.05 64 1012.9
20260507013009 16 31 6.4 9.7 0.00 0.05 0.05 63 1012.5
20260507012506 17 44 9.7 11.3 0.00 0.05 0.05 62 1012.8
20260507012002 17 28 4.8 6.4 0.00 0.05 0.05 63 1012.6
20260507011500 17 56 8.0 11.3 0.00 0.05 0.05 62 1012.5
20260507010955 17 28 6.4 6.4 0.00 0.05 0.05 61 1012.2
20260507010450 18 43 11.3 12.9 0.00 0.05 0.05 60 1012.1
20260507005947 18 66 4.8 6.4 0.00 0.05 0.05 59 1012.0
20260507005445 18 51 6.4 6.4 0.00 0.05 0.05 59 1012.2
20260507004941 18 45 6.4 11.3 0.00 0.05 0.05 60 1012.2
20260507004437 18 49 4.8 4.8 0.00 0.05 0.05 61 1012.2
20260507003935 19 44 3.2 1.6 0.00 0.05 0.05 59 1012.1
20260507003430 19 69 1.6 1.6 0.00 0.05 0.05 59 1012.1
20260507002925 19 79 1.6 1.6 0.00 0.05 0.05 58 1012.1
20260507002422 19 75 4.8 4.8 0.00 0.05 0.05 58 1012.1
20260507001914 20 66 4.8 6.4 0.00 0.05 0.05 57 1011.9
20260507001411 20 60 1.6 1.6 0.00 0.05 0.05 57 1011.8
20260507000908 20 44 3.2 4.8 0.00 0.05 0.05 56 1011.8
20260507000405 20 90 4.8 6.4 0.00 0.05 0.05 56 1011.8
20260506235859 20 81 1.6 1.6 0.00 0.05 0.05 56 1011.9
20260506235356 20 94 3.2 4.8 0.00 0.05 0.05 55 1011.8
20260506234852 21 77 3.2 9.7 0.00 0.05 0.05 53 1011.7
20260506234350 21 100 3.2 4.8 0.00 0.05 0.05 54 1011.8
20260506233848 21 66 8.0 9.7 0.00 0.05 0.05 52 1011.7
20260506233343 20 36 8.0 9.7 0.00 0.05 0.05 53 1011.7
20260506232841 20 64 9.7 11.3 0.00 0.05 0.05 53 1011.9
20260506232336 20 34 4.8 6.4 0.00 0.05 0.05 55 1011.9
20260506231832 21 27 6.4 6.4 0.00 0.05 0.05 53 1011.4
20260506231330 21 30 6.4 6.4 0.00 0.05 0.05 53 1011.4
20260506230827 21 74 6.4 6.4 0.00 0.05 0.05 52 1011.4
20260506230319 21 82 9.7 9.7 0.00 0.05 0.05 52 1011.2
20260506225815 21 40 9.7 11.3 0.00 0.05 0.05 52 1011.2
20260506225312 21 31 8.0 11.3 0.00 0.05 0.05 51 1011.2
20260506224809 21 27 6.4 9.7 0.00 0.05 0.05 52 1011.2
20260506224306 20 50 6.4 6.4 0.00 0.05 0.05 54 1011.2
20260506223803 21 87 6.4 9.7 0.00 0.05 0.05 53 1011.1
20260506223258 21 46 6.4 6.4 0.00 0.05 0.05 56 1011.2
20260506222755 20 47 3.2 4.8 0.00 0.05 0.05 54 1011.1
20260506222250 20 71 12.9 16.1 0.00 0.05 0.05 53 1011.1
20260506221748 20 43 12.9 12.9 0.00 0.05 0.05 53 1011.2
20260506221246 20 31 4.8 4.8 0.00 0.05 0.05 54 1011.2
20260506220744 20 86 11.3 12.9 0.00 0.05 0.05 55 1011.2
20260506220238 20 107 6.4 9.7 0.00 0.05 0.05 56 1011.3
20260506215736 20 44 6.4 9.7 0.00 0.05 0.05 55 1011.7
20260506215231 20 18 6.4 9.7 0.00 0.05 0.05 57 1011.4
20260506214727 20 76 9.7 11.3 0.00 0.05 0.05 55 1011.2
20260506214225 20 42 6.4 11.3 0.00 0.05 0.05 57 1011.1
20260506213723 20 38 8.0 9.7 0.00 0.05 0.05 56 1011.3
20260506213219 20 53 1.6 4.8 0.00 0.05 0.05 57 1011.3
20260506212716 19 350 8.0 9.7 0.00 0.05 0.05 57 1011.4
20260506212212 19 32 11.3 12.9 0.00 0.05 0.05 59 1011.4
20260506211707 19 106 3.2 4.8 0.00 0.05 0.05 58 1011.5
20260506211204 18 41 14.5 16.1 0.00 0.05 0.05 58 1011.4
20260506210702 18 24 9.7 11.3 0.00 0.05 0.05 60 1011.4
20260506210158 18 16 4.8 6.4 0.00 0.05 0.05 60 1011.7
20260506205656 18 51 11.3 16.1 0.00 0.05 0.05 61 1011.8
20260506205155 17 84 8.0 11.3 0.00 0.05 0.05 63 1011.7
20260506204653 17 31 3.2 4.8 0.00 0.05 0.05 62 1012.1
20260506204150 17 59 6.4 9.7 0.00 0.05 0.05 64 1011.8
20260506203648 17 20 14.5 17.7 0.00 0.05 0.05 63 1011.9
20260506203145 17 13 3.2 1.6 0.00 0.05 0.05 63 1012.1
20260506202643 17 39 4.8 6.4 0.00 0.05 0.05 66 1012.1
20260506202138 16 46 4.8 4.8 0.00 0.05 0.05 68 1012.2
20260506201636 16 100 4.8 6.4 0.00 0.05 0.05 66 1012.4
20260506201132 16 346 3.2 1.6 0.00 0.05 0.05 66 1012.4
20260506200629 16 47 8.0 9.7 0.00 0.05 0.05 66 1012.4
20260506200126 16 39 6.4 6.4 0.00 0.05 0.05 66 1012.5
20260506195622 16 351 6.4 6.4 0.00 0.05 0.05 66 1012.4
20260506195119 16 16 14.5 16.1 0.00 0.05 0.05 66 1012.5
20260506194616 15 49 6.4 6.4 0.00 0.05 0.05 68 1012.5
20260506194112 15 35 6.4 9.7 0.00 0.05 0.05 68 1012.7
20260506193610 15 23 11.3 11.3 0.00 0.05 0.05 68 1012.9
20260506193108 15 32 8.0 9.7 0.00 0.05 0.05 68 1012.8
20260506192604 15 41 6.4 6.4 0.00 0.05 0.05 69 1012.6
20260506192100 16 23 6.4 6.4 0.00 0.05 0.05 67 1012.7
20260506191557 15 45 3.2 9.7 0.00 0.05 0.05 68 1012.7
20260506191053 16 12 9.7 11.3 0.00 0.05 0.05 68 1013.0
20260506190550 16 8 11.3 12.9 0.00 0.05 0.05 67 1013.0
20260506190047 15 1 11.3 12.9 0.00 0.05 0.05 68 1013.0
20260506185544 15 10 16.1 17.7 0.00 0.05 0.05 68 1012.9
20260506185041 15 23 9.7 11.3 0.00 0.05 0.05 70 1013.1
20260506184538 15 21 12.9 12.9 0.00 0.05 0.05 69 1013.1
20260506184035 15 334 12.9 12.9 0.00 0.05 0.05 70 1013.1
20260506183531 14 348 4.8 4.8 0.00 0.05 0.05 72 1013.3
20260506183028 14 68 9.7 11.3 0.00 0.05 0.05 72 1013.3
20260506182526 13 35 12.9 16.1 0.00 0.05 0.05 73 1013.3
20260506182022 13 12 11.3 12.9 0.00 0.05 0.05 74 1013.2
20260506181520 13 29 11.3 12.9 0.00 0.05 0.05 75 1013.3
20260506181017 13 28 8.0 9.7 0.00 0.05 0.05 75 1013.2
20260506180514 13 346 11.3 16.1 0.00 0.05 0.05 75 1013.6
20260506180010 13 28 14.5 16.1 0.00 0.05 0.05 76 1013.6
20260506175507 13 17 8.0 9.7 0.00 0.05 0.05 76 1013.7
20260506175003 13 15 12.9 16.1 0.00 0.05 0.05 76 1013.4
20260506174502 12 28 9.7 11.3 0.00 0.05 0.05 77 1013.6
20260506173958 12 6 6.4 11.3 0.00 0.05 0.05 77 1013.7
20260506173456 12 46 12.9 16.1 0.00 0.05 0.05 78 1013.8
20260506172952 12 13 17.7 22.5 0.00 0.05 0.05 77 1013.7
20260506172450 12 10 16.1 17.7 0.00 0.05 0.05 77 1013.6
20260506171945 12 20 16.1 17.7 0.00 0.05 0.05 79 1013.6
20260506171443 12 28 9.7 12.9 0.00 0.05 0.05 80 1013.4
20260506170941 12 15 14.5 20.9 0.00 0.05 0.05 79 1013.6
20260506170437 12 34 11.3 16.1 0.00 0.05 0.05 81 1013.4
20260506165936 12 47 9.7 12.9 0.00 0.05 0.05 81 1013.6
20260506165434 12 11 17.7 22.5 0.00 0.05 0.05 80 1013.8
20260506164930 11 22 11.3 11.3 0.00 0.05 0.05 80 1013.3
20260506164427 11 27 17.7 17.7 0.00 0.05 0.05 81 1013.3
20260506163925 11 6 12.9 16.1 0.00 0.05 0.05 80 1013.1
20260506163419 11 30 16.1 17.7 0.00 0.05 0.05 81 1013.3
20260506162914 11 19 11.3 12.9 0.00 0.05 0.05 81 1013.0
20260506162413 11 4 14.5 20.9 0.00 0.05 0.05 81 1013.2
20260506161910 11 359 17.7 27.4 0.00 0.05 0.05 81 1013.1
20260506161408 11 19 19.3 22.5 0.00 0.05 0.05 82 1012.9
20260506160905 11 28 12.9 17.7 0.00 0.05 0.05 82 1012.7
20260506160402 11 26 14.5 17.7 0.00 0.05 0.05 84 1012.6
20260506155900 11 41 11.3 12.9 0.00 0.05 0.05 84 1012.6
20260506155356 11 36 16.1 20.9 0.00 0.05 0.05 84 1012.6
20260506153513 10 54 11.3 12.9 0.00 0.05 0.05 86 1012.6
20260506153011 10 30 11.3 12.9 0.00 0.05 0.05 87 1012.5
20260506152507 10 32 16.1 20.9 0.00 0.05 0.05 86 1012.2
20260506152006 10 30 8.0 12.9 0.00 0.05 0.05 87 1012.9
20260506151503 10 15 19.3 24.1 0.00 0.05 0.05 87 1012.6
20260506151000 10 30 9.7 12.9 0.00 0.05 0.05 88 1012.5
20260506150456 10 24 11.3 12.9 0.00 0.05 0.05 88 1012.2
20260506145953 10 18 17.7 20.9 0.00 0.05 0.05 88 1012.1
20260506145449 10 16 20.9 29.0 0.00 0.05 0.05 88 1011.5
20260506144947 10 34 27.4 29.0 0.00 0.05 0.05 89 1011.5
20260506144444 10 18 12.9 16.1 0.00 0.05 0.05 89 1011.4
20260506143942 10 39 19.3 27.4 0.00 0.05 0.05 89 1011.4
20260506143438 10 22 17.7 17.7 0.00 0.05 0.05 89 1011.2
20260506142937 10 23 14.5 16.1 0.00 0.05 0.05 90 1011.0
20260506142435 10 25 19.3 22.5 0.00 0.05 0.05 90 1011.1
20260506141932 10 36 6.4 9.7 0.00 0.05 0.05 90 1011.3
20260506141430 10 32 12.9 12.9 0.00 0.05 0.05 90 1011.5
20260506140928 10 59 12.9 12.9 0.00 0.05 0.05 90 1011.4
20260506140425 10 36 14.5 20.9 0.00 0.05 0.05 90 1011.5
20260506135922 10 54 14.5 20.9 0.00 0.05 0.05 91 1011.7
20260506135419 10 138 9.7 12.9 0.00 0.05 0.05 91 1011.5
20260506134915 10 25 19.3 24.1 0.13 0.05 0.05 90 1011.4
20260506134411 10 7 16.1 22.5 0.30 0.05 0.05 90 1011.4
20260506133909 10 15 16.1 20.9 0.18 0.03 0.03 90 1011.2
20260506133405 10 40 17.7 22.5 0.18 0.03 0.03 89 1011.9
20260506132902 10 6 17.7 20.9 0.00 0.00 0.00 89 1013.0
20260506132359 10 35 8.0 9.7 0.00 0.00 0.00 88 1012.7
20260506131857 10 19 8.0 9.7 0.00 0.00 0.00 88 1012.2
20260506131353 10 37 11.3 12.9 0.00 0.00 0.00 87 1012.2
20260506130850 10 39 6.4 9.7 0.00 0.00 0.00 87 1012.1
20260506130346 10 39 14.5 17.7 0.00 0.00 0.00 86 1012.1
20260506125844 10 19 14.5 17.7 0.00 0.00 0.00 85 1012.3
20260506125343 10 31 12.9 16.1 0.00 0.00 0.00 85 1012.0
20260506124841 10 12 20.9 24.1 0.00 0.00 0.00 85 1011.1
20260506124337 10 34 12.9 16.1 0.00 0.00 0.00 84 1011.2
20260506123835 10 35 9.7 16.1 0.00 0.00 0.00 83 1011.1
20260506123333 10 22 6.4 6.4 0.00 0.00 0.00 82 1011.7
20260506122830 10 40 8.0 9.7 0.00 0.00 0.00 82 1011.2
20260506122327 10 38 11.3 16.1 0.00 0.00 0.00 82 1011.0
20260506121825 10 30 12.9 16.1 0.00 0.00 0.00 82 1011.1
20260506121322 10 40 17.7 20.9 0.00 0.00 0.00 82 1010.5
20260506120819 10 44 19.3 22.5 0.00 0.00 0.00 82 1010.9
20260506120317 10 17 17.7 22.5 0.00 0.00 0.00 82 1011.1
20260506115814 10 23 19.3 29.0 0.00 0.00 0.00 82 1011.1
20260506115313 10 20 12.9 16.1 0.00 0.00 0.00 82 1010.9
20260506114810 10 55 16.1 22.5 0.00 0.00 0.00 83 1010.3
20260506114308 10 49 11.3 16.1 0.00 0.00 0.00 82 1010.2
20260506113806 10 18 17.7 22.5 0.00 0.00 0.00 83 1010.2
20260506113303 10 17 14.5 17.7 0.00 0.00 0.00 82 1009.7
20260506112759 10 28 11.3 12.9 0.00 0.00 0.00 82 1009.4
20260506112257 10 55 14.5 22.5 0.00 0.00 0.00 82 1009.5
20260506111754 10 20 12.9 16.1 0.00 0.00 0.00 81 1009.6
20260506111252 10 6 20.9 24.1 0.00 0.00 0.00 81 1009.6
20260506110749 10 41 17.7 24.1 0.00 0.00 0.00 81 1009.5
20260506110247 10 24 16.1 22.5 0.00 0.00 0.00 81 1009.4
20260506105743 11 27 9.7 12.9 0.00 0.00 0.00 80 1009.5
20260506105240 11 36 14.5 17.7 0.00 0.00 0.00 80 1009.6
20260506104738 11 11 12.9 16.1 0.00 0.00 0.00 80 1009.5
20260506104235 11 10 24.1 29.0 0.00 0.00 0.00 81 1009.6
20260506103732 11 50 11.3 11.3 0.00 0.00 0.00 81 1009.5
20260506103229 11 22 11.3 11.3 0.00 0.00 0.00 81 1009.2
20260506102727 11 31 14.5 16.1 0.00 0.00 0.00 82 1009.4
20260506102225 11 35 14.5 24.1 0.00 0.00 0.00 82 1009.4
20260506101721 11 22 11.3 16.1 0.00 0.00 0.00 83 1009.3
20260506101218 11 37 9.7 12.9 0.00 0.00 0.00 83 1009.2
20260506100716 11 24 16.1 22.5 0.00 0.00 0.00 84 1009.1
20260506100214 11 14 14.5 17.7 0.00 0.00 0.00 85 1009.0
20260506095712 11 30 12.9 16.1 0.00 0.00 0.00 85 1008.9
20260506095209 11 27 14.5 20.9 0.00 0.00 0.00 85 1008.8
20260506094706 11 22 6.4 6.4 0.00 0.00 0.00 85 1008.6
20260506094204 11 28 19.3 22.5 0.00 0.00 0.00 84 1008.8
20260506093703 11 39 9.7 12.9 0.00 0.00 0.00 84 1008.7
20260506093159 11 29 9.7 12.9 0.00 0.00 0.00 84 1008.8
20260506092657 11 20 17.7 22.5 0.00 0.00 0.00 84 1008.6
20260506092154 11 35 9.7 12.9 0.00 0.00 0.00 84 1008.4
20260506091652 11 39 11.3 20.9 0.00 0.00 0.00 84 1008.3
20260506091149 11 24 14.5 16.1 0.00 0.00 0.00 83 1008.6
20260506090647 11 12 25.7 27.4 0.00 0.00 0.00 83 1008.4
20260506090143 11 20 9.7 12.9 0.00 0.00 0.00 83 1008.5
20260506085640 11 16 12.9 12.9 0.00 0.00 0.00 83 1008.6
20260506085136 11 52 6.4 6.4 0.00 0.00 0.00 83 1008.3
20260506084633 12 17 9.7 11.3 0.00 0.00 0.00 82 1008.3
20260506084130 12 16 4.8 6.4 0.00 0.00 0.00 82 1008.2
20260506083627 12 30 17.7 17.7 0.00 0.00 0.00 82 1008.1
20260506083124 12 35 8.0 11.3 0.00 0.00 0.00 81 1008.0
20260506082621 12 8 14.5 17.7 0.00 0.00 0.00 81 1008.3
20260506082116 12 26 9.7 12.9 0.00 0.00 0.00 81 1008.4
20260506081615 12 32 8.0 9.7 0.00 0.00 0.00 80 1008.0
20260506081112 12 23 11.3 16.1 0.00 0.00 0.00 80 1008.3
20260506080610 12 30 12.9 16.1 0.00 0.00 0.00 80 1008.4
20260506080106 12 40 16.1 20.9 0.00 0.00 0.00 79 1008.3
20260506073050 13 12 12.9 17.7 0.00 0.00 0.00 76 1008.3
20260506072547 13 30 8.0 11.3 0.00 0.00 0.00 76 1008.2
20260506072045 14 21 9.7 11.3 0.00 0.00 0.00 75 1008.3
20260506071542 14 44 11.3 16.1 0.00 0.00 0.00 74 1008.2
20260506071039 15 30 9.7 11.3 0.00 0.00 0.00 74 1008.3
20260506070536 15 38 8.0 9.7 0.00 0.00 0.00 73 1008.5
20260506062514 15 53 8.0 9.7 0.00 0.00 0.00 70 1008.1
20260506062010 15 41 9.7 11.3 0.00 0.00 0.00 69 1007.8
20260506061506 16 39 6.4 6.4 0.00 0.00 0.00 69 1008.0